Flag for U.S.A. Weather past 2 weeks in Daytona Beach, Florida, U.S.A.

Now
69 °F

Passing clouds.


Feels Like: 69 °F
Forecast: 65 / 81 °F
Wind: 7 mph from Southwest

Location: Daytona Beach Regional Airport


UV Index: 5 (Moderate)

Visibility: 10 mi


Pressure: 29.94 "Hg

Humidity: 81%

Dew point: 63 °F

Location of Daytona BeachLocation

Historic Weather in Daytona Beach

°F

Daytona Beach temperature yesterday

Maximum temperature yesterday: 80 °F (at 2:53 PM)
Minimum temperature yesterday: 60 °F (at 5:53 AM)
Average temperature yesterday: 70 °F

Past Weeks' High & Low Weather Summary

 TemperatureHumidityPressure
High84 °F (Apr 15, 11:53 AM)100% (Apr 15, 2:53 AM)30.30 "Hg (Apr 15, 2:53 AM)
Low49 °F (Apr 16, 5:53 AM)37% (Apr 9, 1:53 PM)29.79 "Hg (Apr 15, 5:53 PM)
Average68 °F76%30.05 "Hg
* Reported Apr 9 12:53 AM — Apr 24 12:53 AM, Daytona Beach, Weather by CustomWeather, © 2014

Note: Actual official high and low records may vary slightly from our data, if they occured in-between our weather recording intervals... More about our weather records

Advertising

Historic Weather Conditions — Data for Previous 24 hours

 ConditionsComfort  
Time TempWeatherWind HumidityBarometerVisibility
12:53 AM
Apr 24
68 °FMostly cloudy.3 mph87%29.96 "Hg10 mi
11:53 PM
Apr 23
68 °FPassing clouds.3 mph87%29.96 "Hg10 mi
10:53 PM69 °FPassing clouds.3 mph87%29.95 "Hg10 mi
9:53 PM69 °FPassing clouds.No wind81%29.93 "Hg10 mi
8:53 PM71 °FPassing clouds.No wind76%29.91 "Hg10 mi
7:53 PM73 °FPassing clouds.3 mph69%29.89 "Hg10 mi
6:53 PM76 °FPassing clouds.8 mph60%29.88 "Hg10 mi
5:53 PM77 °FPassing clouds.8 mph60%29.87 "Hg10 mi
4:53 PM79 °FPassing clouds.9 mph58%29.87 "Hg10 mi
3:53 PM79 °FPassing clouds.9 mph58%29.89 "Hg10 mi
2:53 PM80 °FScattered clouds.10 mph56%29.90 "Hg10 mi
1:53 PM79 °FScattered clouds.5 mph60%29.91 "Hg10 mi
12:53 PM79 °FScattered clouds.6 mph56%29.92 "Hg10 mi
11:53 AM79 °FPassing clouds.No wind60%29.94 "Hg10 mi
10:53 AM74 °FSunny.5 mph69%29.95 "Hg10 mi
9:53 AM71 °FSunny.7 mph76%29.94 "Hg10 mi
8:53 AM66 °FPassing clouds.9 mph90%29.93 "Hg10 mi
7:53 AM62 °FPassing clouds.6 mph96%29.92 "Hg7 mi
6:53 AM60 °FFog.5 mph100%29.90 "Hg5 mi
5:53 AM60 °FFog.5 mph96%29.88 "Hg5 mi
4:53 AM61 °FFog.5 mph97%29.89 "Hg6 mi
3:53 AM61 °FPassing clouds.7 mph97%29.88 "Hg7 mi
2:53 AM62 °FPassing clouds.6 mph93%29.88 "Hg8 mi
Weather by CustomWeather, © 2014

See weather overview